Location: Ostrava
(49.8330°N, 18.2830°E)
Time: 11:09:06
(UTC+02:00)

Transit 2A - All Passes

Search period start: 26 March 2017 00:00
Search period end: 05 April 2017 01:00
Orbit: 602 x 957 km, 66.7° (Epoch: 24 March)

Date Brightness Start Highest point End Pass type
(mag) Time Alt. Az. Time Alt. Az. Time Alt. Az.
26 Mar - 06:04:23 10° S 06:08:34 31° ESE 06:12:32 10° NE visible
26 Mar - 07:47:10 10° WSW 07:51:37 42° NW 07:55:49 10° NNE daylight
26 Mar - 09:33:51 10° NW 09:35:54 13° NNW 09:37:56 10° N daylight
26 Mar - 13:03:09 10° NNW 13:06:12 18° NNE 13:09:18 10° ENE daylight
26 Mar - 14:45:37 10° NW 14:50:01 79° NE 14:54:39 10° SE daylight
26 Mar - 16:30:03 10° WNW 16:32:38 15° WSW 16:35:18 10° SW daylight
27 Mar - 05:31:06 10° SSE 05:34:42 22° ESE 05:38:09 10° ENE visible
27 Mar - 07:12:54 10° SW 07:17:32 58° NW 07:21:54 10° NNE daylight
27 Mar - 08:58:54 10° WNW 09:01:35 15° NNW 09:04:12 10° N daylight
27 Mar - 12:29:22 10° N 12:31:55 15° NNE 12:34:28 10° ENE daylight
27 Mar - 14:11:39 10° NNW 14:15:59 56° NE 14:20:30 10° SE daylight
27 Mar - 15:55:23 10° WNW 15:58:49 22° WSW 16:02:23 10° SSW daylight
28 Mar - 04:58:12 10° SE 05:00:53 15° ESE 05:03:28 10° ENE visible
28 Mar - 06:38:47 10° SW 06:43:29 82° NW 06:47:56 10° NE daylight
28 Mar - 08:24:05 10° WNW 08:27:17 19° NNW 08:30:25 10° NNE daylight
28 Mar - 11:55:39 10° N 11:57:34 13° NNE 11:59:30 10° NE daylight
28 Mar - 13:37:44 10° NNW 13:41:54 41° NE 13:46:14 10° ESE daylight
28 Mar - 15:21:01 10° NW 15:24:56 32° WSW 15:29:04 10° S daylight
29 Mar - 06:04:48 10° SSW 06:09:29 71° ESE 06:13:54 10° NE daylight
29 Mar - 07:49:23 10° W 07:53:02 23° NW 07:56:35 10° NNE daylight
29 Mar - 11:22:04 10° N 11:23:11 11° NNE 11:24:18 10° NNE daylight
29 Mar - 13:03:50 10° NNW 13:07:45 31° NE 13:11:48 10° ESE daylight
29 Mar - 14:46:48 10° NW 14:51:02 46° WSW 14:55:30 10° SSE daylight
30 Mar - 05:31:00 10° SSW 05:35:32 49° ESE 05:39:49 10° NE visible
30 Mar - 07:14:49 10° WSW 07:18:51 30° NW 07:22:44 10° NNE daylight
30 Mar - 09:02:27 10° NNW 09:03:27 11° NNW 09:04:26 10° N daylight
30 Mar - 12:29:58 10° NNW 12:33:34 24° NE 12:37:15 10° E daylight
30 Mar - 14:12:42 10° NW 14:17:05 67° WSW 14:21:43 10° SSE daylight
31 Mar - 04:57:23 10° S 05:01:37 34° ESE 05:05:37 10° NE visible
31 Mar - 06:40:23 10° WSW 06:44:42 39° NW 06:48:51 10° NNE daylight
31 Mar - 08:27:13 10° NW 08:29:03 12° NNW 08:30:53 10° N daylight
31 Mar - 11:56:09 10° NNW 11:59:20 19° NNE 12:02:35 10° E daylight
31 Mar - 13:38:40 10° NW 13:43:06 86° NE 13:47:46 10° SE daylight
31 Mar - 15:23:18 10° WNW 15:25:39 14° WSW 15:28:04 10° SW daylight
01 Apr - 04:24:01 10° SSE 04:27:45 23° ESE 04:31:17 10° ENE visible
01 Apr - 06:06:04 10° SW 06:10:36 53° NW 06:14:56 10° NNE daylight
01 Apr - 07:52:13 10° WNW 07:54:43 15° NNW 07:57:10 10° N daylight
01 Apr - 11:22:21 10° N 11:25:02 16° NNE 11:27:47 10° ENE daylight
01 Apr - 13:04:41 10° NNW 13:09:03 61° NE 13:13:40 10° SE daylight
01 Apr - 14:48:32 10° WNW 14:51:50 20° WSW 14:55:17 10° SSW daylight
02 Apr - 03:51:02 10° SSE 03:53:54 16° ESE 03:56:42 10° ENE visible
02 Apr - 05:31:54 10° SW 05:36:33 75° NW 05:40:58 10° NE visible
02 Apr - 07:17:22 10° WNW 07:20:25 18° NNW 07:23:24 10° NNE daylight
02 Apr - 10:48:37 10° N 10:50:43 13° NNE 10:52:51 10° NE daylight
02 Apr - 12:30:45 10° NNW 12:34:59 44° NE 12:39:25 10° ESE daylight
02 Apr - 14:14:07 10° NW 14:17:59 29° WSW 14:22:03 10° S daylight
03 Apr - 03:18:57 10° ESE 03:20:08 11° ESE 03:21:17 10° E visible
03 Apr - 04:57:53 10° SSW 05:02:32 77° SE 05:06:57 10° NE visible
03 Apr - 06:42:39 10° W 06:46:09 22° NW 06:49:35 10° NNE daylight
03 Apr - 10:14:58 10° N 10:16:21 11° NNE 10:17:44 10° NE daylight
03 Apr - 11:56:51 10° NNW 12:00:51 33° NE 12:05:01 10° ESE daylight
03 Apr - 13:39:53 10° NW 13:44:05 42° WSW 13:48:32 10° S daylight
04 Apr - 04:24:03 10° SSW 04:28:35 53° ESE 04:32:53 10° NE visible
04 Apr - 06:08:02 10° W 06:11:57 28° NW 06:15:44 10° NNE daylight
04 Apr - 07:55:58 10° NNW 07:56:36 10° NNW 07:57:15 10° N daylight
04 Apr - 11:22:59 10° NNW 11:26:41 25° NE 11:30:30 10° E daylight
04 Apr - 13:05:45 10° NW 13:10:08 61° WSW 13:14:48 10° SSE daylight
